Total_Precipitation_Accumulation
0.17 0.23 0.46 0.47 0.45 0.40 0.37 0.34 0.37 0.35 0.33 0.35 0.38 0.42 0.41 0.37 0.32 0.30 0.28 0.32 0.41 0.53 0.63 0.64 0.61 0.58 0.53 0.47 0.33 0.20 0.17 0.15 0.12 0.11 0.10 0.14 0.20 0.20 0.16 0.15 0.17 0.21 0.24
0.15 0.24 0.47 0.50 0.52 0.51 0.50 0.40 0.34 0.35 0.35 0.38 0.44 0.45 0.46 0.43 0.38 0.31 0.31 0.38 0.45 0.53 0.59 0.59 0.50 0.41 0.38 0.32 0.22 0.15 0.13 0.10 0.06 0.04 0.03 0.05 0.10 0.17 0.16 0.14 0.17 0.24 0.27
0.17 0.29 0.45 0.53 0.57 0.59 0.55 0.44 0.34 0.33 0.36 0.42 0.46 0.47 0.49 0.47 0.41 0.40 0.40 0.43 0.46 0.54 0.53 0.46 0.34 0.26 0.23 0.18 0.14 0.12 0.11 0.09 0.05 0.04 0.05 0.08 0.12 0.18 0.19 0.16 0.21 0.28 0.31
0.25 0.39 0.46 0.57 0.61 0.62 0.60 0.51 0.44 0.38 0.41 0.46 0.51 0.54 0.57 0.53 0.46 0.50 0.48 0.46 0.47 0.47 0.40 0.33 0.28 0.23 0.17 0.14 0.12 0.12 0.11 0.09 0.06 0.07 0.10 0.12 0.14 0.24 0.25 0.23 0.29 0.31 0.30
0.39 0.49 0.60 0.68 0.70 0.70 0.65 0.60 0.54 0.49 0.51 0.54 0.55 0.60 0.59 0.60 0.55 0.59 0.54 0.46 0.41 0.36 0.32 0.28 0.24 0.20 0.15 0.13 0.13 0.14 0.13 0.10 0.07 0.08 0.11 0.12 0.16 0.31 0.31 0.27 0.27 0.27 0.26
0.56 0.65 0.82 0.91 0.91 0.84 0.75 0.70 0.66 0.61 0.60 0.61 0.62 0.65 0.67 0.68 0.66 0.64 0.55 0.42 0.33 0.28 0.26 0.25 0.20 0.18 0.17 0.14 0.13 0.13 0.13 0.10 0.07 0.07 0.09 0.12 0.20 0.35 0.33 0.28 0.28 0.29 0.30
0.67 0.80 1.01 1.13 1.13 0.98 0.87 0.81 0.80 0.78 0.78 0.76 0.72 0.75 0.81 0.77 0.72 0.67 0.53 0.38 0.30 0.24 0.23 0.22 0.20 0.20 0.20 0.17 0.15 0.14 0.11 0.09 0.07 0.06 0.07 0.10 0.20 0.36 0.37 0.35 0.34 0.35 0.34
0.79 0.90 1.13 1.26 1.21 1.10 1.06 0.98 0.97 0.99 0.94 0.90 0.86 0.93 0.95 0.87 0.76 0.66 0.55 0.43 0.34 0.26 0.24 0.23 0.22 0.23 0.22 0.22 0.20 0.17 0.09 0.07 0.05 0.06 0.07 0.11 0.18 0.32 0.34 0.34 0.35 0.35 0.34
1.07 1.15 1.30 1.32 1.25 1.13 1.04 1.03 1.04 1.10 1.13 1.02 0.92 0.95 0.96 0.90 0.77 0.67 0.52 0.48 0.39 0.33 0.29 0.26 0.25 0.24 0.23 0.23 0.22 0.17 0.10 0.06 0.05 0.05 0.07 0.11 0.19 0.31 0.34 0.34 0.33 0.32 0.32
1.52 1.49 1.50 1.51 1.42 1.25 1.07 1.10 1.08 1.04 1.03 1.04 0.96 0.84 0.78 0.74 0.66 0.62 0.46 0.45 0.42 0.35 0.31 0.27 0.26 0.26 0.23 0.19 0.18 0.16 0.10 0.07 0.05 0.05 0.08 0.10 0.16 0.26 0.28 0.31 0.31 0.32 0.34
1.91 1.88 1.71 1.70 1.61 1.52 1.38 1.27 1.27 1.12 1.01 0.98 0.94 0.80 0.74 0.77 0.69 0.55 0.36 0.34 0.34 0.31 0.27 0.25 0.25 0.25 0.20 0.15 0.13 0.12 0.10 0.07 0.06 0.07 0.08 0.09 0.17 0.27 0.32 0.34 0.33 0.33 0.35
2.07 2.04 1.91 1.82 1.77 1.75 1.52 1.42 1.44 1.27 1.07 0.98 0.90 0.89 0.81 0.78 0.72 0.56 0.43 0.32 0.33 0.29 0.26 0.26 0.26 0.24 0.21 0.16 0.14 0.12 0.11 0.09 0.10 0.08 0.08 0.10 0.18 0.27 0.37 0.38 0.34 0.32 0.33
2.39 2.31 2.16 2.03 1.91 1.87 1.78 1.51 1.45 1.32 1.18 1.09 0.98 0.95 0.90 0.89 0.81 0.69 0.61 0.46 0.41 0.34 0.31 0.31 0.31 0.24 0.21 0.21 0.19 0.14 0.12 0.10 0.10 0.09 0.08 0.09 0.16 0.27 0.36 0.38 0.36 0.34 0.34
2.45 2.51 2.33 2.20 2.09 1.96 1.88 1.73 1.53 1.40 1.23 1.12 1.01 0.92 0.95 0.96 0.86 0.71 0.60 0.51 0.46 0.38 0.35 0.34 0.31 0.25 0.22 0.20 0.18 0.17 0.15 0.14 0.12 0.12 0.11 0.10 0.14 0.22 0.32 0.38 0.40 0.39 0.41
2.34 2.54 2.52 2.37 2.21 2.04 1.95 1.89 1.69 1.43 1.23 1.19 1.19 1.06 0.92 0.86 0.80 0.72 0.59 0.54 0.50 0.44 0.42 0.39 0.34 0.28 0.25 0.22 0.18 0.16 0.15 0.15 0.13 0.13 0.12 0.09 0.10 0.16 0.24 0.33 0.42 0.48 0.54
2.23 2.43 2.55 2.61 2.45 2.21 1.97 1.85 1.79 1.62 1.41 1.34 1.33 1.24 1.11 0.97 0.84 0.74 0.60 0.54 0.50 0.45 0.40 0.41 0.38 0.34 0.31 0.26 0.21 0.18 0.15 0.15 0.14 0.13 0.12 0.11 0.11 0.13 0.18 0.25 0.37 0.49 0.62
2.31 2.36 2.50 2.62 2.68 2.50 2.25 2.00 1.90 1.76 1.58 1.47 1.42 1.44 1.35 1.19 1.03 0.91 0.74 0.58 0.51 0.51 0.48 0.47 0.48 0.41 0.32 0.28 0.24 0.21 0.19 0.18 0.17 0.15 0.14 0.13 0.14 0.15 0.17 0.22 0.31 0.45 0.60
2.61 2.54 2.61 2.59 2.70 2.70 2.53 2.26 2.04 1.89 1.70 1.48 1.33 1.36 1.41 1.32 1.19 1.09 0.99 0.82 0.70 0.65 0.63 0.55 0.50 0.49 0.38 0.31 0.26 0.23 0.21 0.20 0.19 0.18 0.17 0.14 0.13 0.15 0.17 0.21 0.26 0.34 0.45
2.73 2.77 2.83 2.79 2.66 2.70 2.72 2.55 2.26 1.99 1.78 1.60 1.39 1.28 1.32 1.35 1.25 1.14 1.00 0.98 0.95 0.84 0.72 0.64 0.53 0.52 0.48 0.39 0.34 0.29 0.25 0.22 0.20 0.19 0.18 0.18 0.17 0.15 0.15 0.18 0.21 0.24 0.30
2.74 2.74 2.78 2.86 2.90 2.90 2.90 2.85 2.57 2.24 1.94 1.74 1.59 1.45 1.38 1.39 1.36 1.28 1.12 1.05 1.06 1.03 0.92 0.80 0.68 0.59 0.55 0.53 0.46 0.36 0.29 0.25 0.21 0.20 0.19 0.19 0.19 0.18 0.16 0.17 0.19 0.19 0.22
2.56 2.63 2.60 2.63 2.77 2.89 2.94 2.84 2.64 2.34 2.14 1.92 1.74 1.66 1.56 1.47 1.44 1.44 1.31 1.24 1.24 1.20 1.14 1.09 1.00 0.86 0.71 0.68 0.64 0.48 0.34 0.27 0.24 0.20 0.20 0.22 0.21 0.22 0.22 0.21 0.22 0.23 0.24
2.14 2.47 2.49 2.54 2.57 2.62 2.63 2.75 2.79 2.64 2.39 2.17 1.96 1.78 1.64 1.50 1.44 1.45 1.48 1.40 1.31 1.32 1.30 1.26 1.17 1.04 0.91 0.84 0.79 0.73 0.55 0.39 0.28 0.24 0.22 0.23 0.23 0.25 0.25 0.26 0.27 0.29 0.29
1.86 2.26 2.44 2.53 2.60 2.54 2.62 2.95 3.07 2.98 2.64 2.38 2.15 1.91 1.73 1.62 1.55 1.44 1.37 1.39 1.37 1.36 1.36 1.35 1.36 1.35 1.24 1.11 0.99 1.01 0.84 0.59 0.43 0.32 0.27 0.26 0.28 0.30 0.30 0.31 0.32 0.35 0.36
1.62 1.91 2.15 2.44 2.62 2.67 2.71 2.86 2.85 2.65 2.40 2.16 2.12 2.03 1.89 1.78 1.63 1.56 1.49 1.42 1.39 1.38 1.36 1.41 1.44 1.45 1.47 1.36 1.23 1.12 1.01 0.83 0.76 0.57 0.41 0.37 0.38 0.39 0.39 0.37 0.36 0.37 0.39
1.42 1.69 1.82 2.04 2.28 2.43 2.52 2.69 2.78 2.58 2.31 2.12 2.06 2.01 1.92 1.86 1.72 1.59 1.51 1.51 1.48 1.44 1.41 1.42 1.48 1.48 1.49 1.48 1.40 1.29 1.21 1.04 0.90 0.84 0.65 0.51 0.49 0.46 0.47 0.46 0.43 0.42 0.42
1.21 1.50 1.66 1.82 1.99 2.18 2.25 2.42 2.63 2.47 2.22 1.98 1.87 1.84 1.77 1.74 1.64 1.51 1.44 1.40 1.40 1.38 1.36 1.33 1.38 1.43 1.43 1.38 1.34 1.27 1.25 1.17 1.02 0.99 0.90 0.71 0.67 0.60 0.59 0.61 0.58 0.54 0.51